Home > Weather > Pirmasens > Past weeks

Flag for Germany Past Weather in Pirmasens, Rhineland-Palatinate, Germany — Yesterday and Last 2 Weeks

Now
80 °F

Sunny.


Feels Like: 81 °F
Forecast: 58 / 72 °F
Wind: 5 mph from Southwest

Location: Ramstein

Current Time: Aug 28, 2016 at 11:06:19 AM

Latest Report: Aug 28, 2016 at 9:58 AM


Visibility: N/A

Pressure: 29.98 "Hg

Humidity: 53%

Dew Point: 61 °F

Location of PirmasensLocation

Past Weather in Pirmasens — Graph

°F

Pirmasens Temperature Yesterday

Maximum temperature yesterday: 95 °F (at 4:58 PM)
Minimum temperature yesterday: 60 °F (at 6:59 AM)
Average temperature yesterday: 77 °F

High & Low Weather Summary for the Past Weeks

 TemperatureHumidityPressure
High96 °F (Aug 26, 4:58 PM)100% (Aug 13, 9:01 AM)30.39 "Hg (Aug 13, 9:01 AM)
Low45 °F (Aug 22, 4:58 AM)28% (Aug 27, 4:58 PM)29.81 "Hg (Aug 18, 3:58 PM)
Average66 °F76%30.07 "Hg
* Reported Aug 13 9:01 AM — Aug 28 9:58 AM, Pirmasens, Weather by CustomWeather, © 2016

Note: Actual official high and low records may vary slightly from our data, if they occured in-between our weather recording intervals... More about our weather records

Advertising

Pirmasens Weather History for the Previous 24 Hours

Scroll right to see more
 ConditionsComfort  
Time TempWeatherWind HumidityBarometerVisibility
9:58 AM
Sun, Aug 28
81 °FSunny.5 mph51%29.98 "HgN/A
8:58 AM75 °FSunny.2 mph65%29.99 "HgN/A
7:58 AM64 °FSunny.No wind100%29.98 "HgN/A
6:58 AM58 °FPassing clouds.No wind99%29.98 "HgN/A
5:58 AM60 °FClear.No wind100%29.95 "HgN/A
4:58 AM60 °FClear.No wind99%29.96 "HgN/A
3:58 AM60 °FPassing clouds.No wind99%29.96 "HgN/A
2:58 AM63 °FPassing clouds.No wind99%29.97 "HgN/A
1:58 AM60 °FClear.No wind99%29.97 "HgN/A
12:58 AM63 °FClear.No wind94%29.97 "HgN/A
11:58 PM
Sat, Aug 27
63 °FClear.No wind99%29.98 "HgN/A
10:58 PM66 °FClear.No wind96%29.98 "HgN/A
9:58 PM70 °FClear.No wind81%29.98 "HgN/A
8:58 PM73 °FSunny.No wind74%29.98 "HgN/A
7:58 PM84 °FSunny.No wind51%29.98 "HgN/A
6:58 PM91 °FSunny.2 mph35%29.96 "HgN/A
5:58 PM95 °FSunny.5 mph28%29.97 "HgN/A
4:58 PM95 °FSunny.5 mph28%29.98 "HgN/A
3:58 PM91 °FPassing clouds.1 mph36%29.99 "HgN/A
2:58 PM93 °FPassing clouds.7 mph36%30.00 "HgN/A
1:58 PM93 °FSunny.2 mph34%30.02 "HgN/A
12:58 PM91 °FSunny.1 mph34%30.03 "HgN/A
11:58 AM88 °FSunny.No wind51%30.04 "HgN/A
Weather by CustomWeather, © 2016

See weather overviewHow to use our weather pages